This is the latest recevied weather packets stored in our database for station/object N3FU-13. If no packets are shown the sender has not sent any weather packets the latest 10 day(s).
| Time | Temp. | Humidity | Pressure | Rain* | Wind** | Luminosity | Snow |
|---|---|---|---|---|---|---|---|
| 1777693332 | 23.33° C | 91% | 1011.5 hPa | 0 mm | - | - | - |
| 1777692432 | 23.33° C | 91% | 1011.6 hPa | 0 mm | - | - | - |
| 1777691572 | 23.89° C | 90% | 1011.5 hPa | 0 mm | - | - | - |
| 1777691532 | 23.33° C | 90% | 1011.5 hPa | 0 mm | - | - | - |
| 1777690793 | 23.89° C | 90% | 1011.5 hPa | 0 mm | - | - | - |
| 1777690646 | 23.89° C | 90% | 1011.5 hPa | 0 mm | - | - | - |
| 1777689732 | 23.89° C | 90% | 1011.5 hPa | 0 mm | - | - | - |
| 1777688832 | 24.44° C | 90% | 1011.6 hPa | 0 mm | - | - | - |
| 1777688721 | 24.44° C | 89% | 1011.6 hPa | 0 mm | - | - | - |
| 1777688350 | 24.44° C | 89% | 1011.6 hPa | 0 mm | - | - | - |
| 1777687932 | 24.44° C | 89% | 1011.6 hPa | 0 mm | - | - | - |
| 1777687033 | 24.44° C | 89% | 1011.4 hPa | 0 mm | - | - | - |
| 1777686133 | 24.44° C | 89% | 1011.5 hPa | 0 mm | - | - | - |
| 1777685233 | 24.44° C | 88% | 1011.3 hPa | 0 mm | - | - | - |
| 1777684333 | 25° C | 87% | 1011.3 hPa | 0 mm | - | - | - |
| 1777683433 | 25° C | 87% | 1011 hPa | 0 mm | - | - | - |
| 1777682533 | 25.56° C | 86% | 1010.9 hPa | 0 mm | - | - | - |
| 1777681633 | 25.56° C | 85% | 1010.8 hPa | 0 mm | - | - | - |
| 1777680733 | 25.56° C | 84% | 1010.5 hPa | 0 mm | - | - | - |
| 1777679833 | 26.11° C | 83% | 1010.4 hPa | 0 mm | - | - | - |
| 1777678933 | 26.67° C | 82% | 1010.4 hPa | 0 mm | - | - | - |
| 1777678116 | 26.67° C | 80% | 1010.4 hPa | 0 mm | - | - | - |
| 1777678033 | 26.67° C | 80% | 1010.4 hPa | 0 mm | - | - | - |
| 1777677133 | 27.22° C | 79% | 1010.3 hPa | 0 mm | - | - | - |
| 1777676382 | 27.78° C | 77% | 1010.1 hPa | 0 mm | - | - | - |
* Rain latest hour (hover to see other rain measurements)
** Current wind speed in m/s (hover to see current wind gust speed)